"Time","Value","Approval","myLocation"
"2023-05-06 00:00",-0.055,"Working","OW268"
"2023-05-06 01:00",-0.056,"Working","OW268"
"2023-05-06 02:00",-0.056,"Working","OW268"
"2023-05-06 03:00",-0.057,"Working","OW268"
"2023-05-06 04:00",-0.058,"Working","OW268"
"2023-05-06 05:00",-0.059,"Working","OW268"
"2023-05-06 06:00",-0.06,"Working","OW268"
"2023-05-06 07:00",-0.061,"Working","OW268"
"2023-05-06 08:00",-0.063,"Working","OW268"
"2023-05-06 09:00",-0.064,"Working","OW268"
"2023-05-06 10:00",-0.066,"Working","OW268"
"2023-05-06 11:00",-0.068,"Working","OW268"
"2023-05-06 12:00",-0.07,"Working","OW268"
"2023-05-06 13:00",-0.073,"Working","OW268"
"2023-05-06 14:00",-0.076,"Working","OW268"
"2023-05-06 15:00",-0.076,"Working","OW268"
"2023-05-06 16:00",-0.078,"Working","OW268"
"2023-05-06 17:00",-0.079,"Working","OW268"
"2023-05-06 18:00",-0.077,"Working","OW268"
"2023-05-06 19:00",-0.075,"Working","OW268"
"2023-05-06 20:00",-0.075,"Working","OW268"
"2023-05-06 21:00",-0.076,"Working","OW268"
"2023-05-06 22:00",-0.076,"Working","OW268"
"2023-05-06 23:00",-0.077,"Working","OW268"
"2023-05-07 00:00",-0.079,"Working","OW268"
"2023-05-07 01:00",-0.08,"Working","OW268"
"2023-05-07 02:00",-0.079,"Working","OW268"
"2023-05-07 03:00",-0.074,"Working","OW268"
"2023-05-07 04:00",-0.073,"Working","OW268"
"2023-05-07 05:00",-0.073,"Working","OW268"
"2023-05-07 06:00",-0.073,"Working","OW268"
"2023-05-07 07:00",-0.073,"Working","OW268"
"2023-05-07 08:00",-0.074,"Working","OW268"
"2023-05-07 09:00",-0.074,"Working","OW268"
"2023-05-07 10:00",-0.076,"Working","OW268"
"2023-05-07 11:00",-0.078,"Working","OW268"
"2023-05-07 12:00",-0.081,"Working","OW268"
"2023-05-07 13:00",-0.084,"Working","OW268"
"2023-05-07 14:00",-0.087,"Working","OW268"
"2023-05-07 15:00",-0.089,"Working","OW268"
"2023-05-07 16:00",-0.091,"Working","OW268"
"2023-05-07 17:00",-0.092,"Working","OW268"
"2023-05-07 18:00",-0.092,"Working","OW268"
"2023-05-07 19:00",-0.091,"Working","OW268"
"2023-05-07 20:00",-0.089,"Working","OW268"
"2023-05-07 21:00",-0.089,"Working","OW268"
"2023-05-07 22:00",-0.089,"Working","OW268"
"2023-05-07 23:00",-0.088,"Working","OW268"
"2023-05-08 00:00",-0.088,"Working","OW268"
"2023-05-08 01:00",-0.078,"Working","OW268"
"2023-05-08 02:00",-0.067,"Working","OW268"
"2023-05-08 03:00",-0.052,"Working","OW268"
"2023-05-08 04:00",-0.048,"Working","OW268"
"2023-05-08 05:00",-0.046,"Working","OW268"
"2023-05-08 06:00",-0.042,"Working","OW268"
"2023-05-08 07:00",-0.042,"Working","OW268"
"2023-05-08 08:00",-0.043,"Working","OW268"
"2023-05-08 09:00",-0.045,"Working","OW268"
"2023-05-08 10:00",-0.047,"Working","OW268"
"2023-05-08 11:00",-0.049,"Working","OW268"
"2023-05-08 12:00",-0.053,"Working","OW268"
"2023-05-08 13:00",-0.056,"Working","OW268"
"2023-05-08 14:00",-0.059,"Working","OW268"
"2023-05-08 15:00",-0.059,"Working","OW268"
"2023-05-08 16:00",-0.058,"Working","OW268"
"2023-05-08 17:00",-0.057,"Working","OW268"
"2023-05-08 18:00",-0.057,"Working","OW268"
"2023-05-08 19:00",-0.056,"Working","OW268"
"2023-05-08 20:00",-0.056,"Working","OW268"
"2023-05-08 21:00",-0.057,"Working","OW268"
"2023-05-08 22:00",-0.058,"Working","OW268"
"2023-05-08 23:00",-0.056,"Working","OW268"
"2023-05-09 00:00",-0.056,"Working","OW268"
"2023-05-09 01:00",-0.057,"Working","OW268"
"2023-05-09 02:00",-0.058,"Working","OW268"
"2023-05-09 03:00",-0.06,"Working","OW268"
"2023-05-09 04:00",-0.057,"Working","OW268"
"2023-05-09 05:00",-0.057,"Working","OW268"
"2023-05-09 06:00",-0.057,"Working","OW268"
"2023-05-09 07:00",-0.058,"Working","OW268"
"2023-05-09 08:00",-0.06,"Working","OW268"
"2023-05-09 09:00",-0.061,"Working","OW268"
"2023-05-09 10:00",-0.063,"Working","OW268"
"2023-05-09 11:00",-0.065,"Working","OW268"
"2023-05-09 12:00",-0.067,"Working","OW268"
"2023-05-09 13:00",-0.069,"Working","OW268"
"2023-05-09 14:00",-0.071,"Working","OW268"
"2023-05-09 15:00",-0.072,"Working","OW268"
"2023-05-09 16:00",-0.072,"Working","OW268"
"2023-05-09 17:00",-0.072,"Working","OW268"
"2023-05-09 18:00",-0.067,"Working","OW268"
"2023-05-09 19:00",-0.065,"Working","OW268"
"2023-05-09 20:00",-0.065,"Working","OW268"
"2023-05-09 21:00",-0.065,"Working","OW268"
"2023-05-09 22:00",-0.065,"Working","OW268"
"2023-05-09 23:00",-0.065,"Working","OW268"
"2023-05-10 00:00",-0.065,"Working","OW268"
"2023-05-10 01:00",-0.066,"Working","OW268"
"2023-05-10 02:00",-0.023,"Working","OW268"
"2023-05-10 03:00",-0.009,"Working","OW268"
"2023-05-10 04:00",-0.006,"Working","OW268"
"2023-05-10 05:00",-0.006,"Working","OW268"
"2023-05-10 06:00",-0.006,"Working","OW268"
"2023-05-10 07:00",-0.006,"Working","OW268"
"2023-05-10 08:00",-0.007,"Working","OW268"
"2023-05-10 09:00",-0.008,"Working","OW268"
"2023-05-10 10:00",-0.01,"Working","OW268"
"2023-05-10 11:00",-0.011,"Working","OW268"
"2023-05-10 12:00",-0.013,"Working","OW268"
"2023-05-10 13:00",-0.014,"Working","OW268"
"2023-05-10 14:00",-0.016,"Working","OW268"
"2023-05-10 15:00",-0.018,"Working","OW268"
"2023-05-10 16:00",-0.018,"Working","OW268"
"2023-05-10 17:00",-0.016,"Working","OW268"
"2023-05-10 18:00",-0.016,"Working","OW268"
"2023-05-10 19:00",-0.014,"Working","OW268"
"2023-05-10 20:00",-0.014,"Working","OW268"
"2023-05-10 21:00",-0.014,"Working","OW268"
"2023-05-10 22:00",-0.015,"Working","OW268"
"2023-05-10 23:00",-0.015,"Working","OW268"
"2023-05-11 00:00",-0.016,"Working","OW268"
"2023-05-11 01:00",-0.016,"Working","OW268"
"2023-05-11 02:00",-0.017,"Working","OW268"
"2023-05-11 03:00",-0.016,"Working","OW268"
"2023-05-11 04:00",-0.015,"Working","OW268"
"2023-05-11 05:00",-0.015,"Working","OW268"
"2023-05-11 06:00",-0.016,"Working","OW268"
"2023-05-11 07:00",-0.017,"Working","OW268"
"2023-05-11 08:00",-0.018,"Working","OW268"
"2023-05-11 09:00",-0.019,"Working","OW268"
"2023-05-11 10:00",-0.02,"Working","OW268"
"2023-05-11 11:00",-0.021,"Working","OW268"
"2023-05-11 12:00",-0.022,"Working","OW268"
"2023-05-11 13:00",-0.024,"Working","OW268"
"2023-05-11 14:00",-0.025,"Working","OW268"
"2023-05-11 15:00",-0.024,"Working","OW268"
"2023-05-11 16:00",-0.022,"Working","OW268"
"2023-05-11 17:00",-0.022,"Working","OW268"
"2023-05-11 18:00",-0.022,"Working","OW268"
"2023-05-11 19:00",-0.023,"Working","OW268"
"2023-05-11 20:00",-0.023,"Working","OW268"
"2023-05-11 21:00",-0.024,"Working","OW268"
"2023-05-11 22:00",-0.024,"Working","OW268"
"2023-05-11 23:00",-0.024,"Working","OW268"
"2023-05-12 00:00",-0.025,"Working","OW268"
"2023-05-12 01:00",-0.026,"Working","OW268"
"2023-05-12 02:00",-0.025,"Working","OW268"
"2023-05-12 03:00",-0.025,"Working","OW268"
"2023-05-12 04:00",-0.025,"Working","OW268"
"2023-05-12 05:00",-0.026,"Working","OW268"
"2023-05-12 06:00",-0.026,"Working","OW268"
"2023-05-12 07:00",-0.026,"Working","OW268"
"2023-05-12 08:00",-0.026,"Working","OW268"
"2023-05-12 09:00",-0.026,"Working","OW268"
"2023-05-12 10:00",-0.026,"Working","OW268"
"2023-05-12 11:00",-0.026,"Working","OW268"
"2023-05-12 12:00",-0.027,"Working","OW268"
"2023-05-12 13:00",-0.027,"Working","OW268"
"2023-05-12 14:00",-0.027,"Working","OW268"
"2023-05-12 15:00",-0.027,"Working","OW268"
"2023-05-12 16:00",-0.024,"Working","OW268"
"2023-05-12 17:00",-0.023,"Working","OW268"
"2023-05-12 18:00",-0.023,"Working","OW268"
"2023-05-12 19:00",-0.021,"Working","OW268"
"2023-05-12 20:00",-0.013,"Working","OW268"
"2023-05-12 21:00",-0.008,"Working","OW268"
"2023-05-12 22:00",-0.003,"Working","OW268"
"2023-05-12 23:00",0.007,"Working","OW268"
"2023-05-13 00:00",0.063,"Working","OW268"
"2023-05-13 01:00",0.081,"Working","OW268"
"2023-05-13 02:00",0.083,"Working","OW268"
"2023-05-13 03:00",0.084,"Working","OW268"
"2023-05-13 04:00",0.085,"Working","OW268"
"2023-05-13 05:00",0.085,"Working","OW268"
"2023-05-13 06:00",0.085,"Working","OW268"
"2023-05-13 07:00",0.084,"Working","OW268"
"2023-05-13 08:00",0.083,"Working","OW268"
"2023-05-13 09:00",0.082,"Working","OW268"
"2023-05-13 10:00",0.081,"Working","OW268"
"2023-05-13 11:00",0.08,"Working","OW268"
"2023-05-13 12:00",0.078,"Working","OW268"
"2023-05-13 13:00",0.076,"Working","OW268"
"2023-05-13 14:00",0.078,"Working","OW268"
"2023-05-13 15:00",0.124,"Working","OW268"
"2023-05-13 16:00",0.13,"Working","OW268"
"2023-05-13 17:00",0.132,"Working","OW268"
"2023-05-13 18:00",0.133,"Working","OW268"
"2023-05-13 19:00",0.132,"Working","OW268"
"2023-05-13 20:00",0.132,"Working","OW268"
"2023-05-13 21:00",0.131,"Working","OW268"
"2023-05-13 22:00",0.13,"Working","OW268"
"2023-05-13 23:00",0.129,"Working","OW268"
"2023-05-14 00:00",0.128,"Working","OW268"
"2023-05-14 01:00",0.128,"Working","OW268"
"2023-05-14 02:00",0.129,"Working","OW268"
"2023-05-14 03:00",0.129,"Working","OW268"
"2023-05-14 04:00",0.128,"Working","OW268"
"2023-05-14 05:00",0.127,"Working","OW268"
"2023-05-14 06:00",0.126,"Working","OW268"
"2023-05-14 07:00",0.124,"Working","OW268"
"2023-05-14 08:00",0.121,"Working","OW268"
"2023-05-14 09:00",0.118,"Working","OW268"
"2023-05-14 10:00",0.115,"Working","OW268"
"2023-05-14 11:00",0.112,"Working","OW268"
"2023-05-14 12:00",0.11,"Working","OW268"
"2023-05-14 13:00",0.107,"Working","OW268"
"2023-05-14 14:00",0.104,"Working","OW268"
"2023-05-14 15:00",0.101,"Working","OW268"
"2023-05-14 16:00",0.1,"Working","OW268"
"2023-05-14 17:00",0.098,"Working","OW268"
"2023-05-14 18:00",0.097,"Working","OW268"
"2023-05-14 19:00",0.096,"Working","OW268"
"2023-05-14 20:00",0.094,"Working","OW268"
"2023-05-14 21:00",0.092,"Working","OW268"
"2023-05-14 22:00",0.091,"Working","OW268"
"2023-05-14 23:00",0.089,"Working","OW268"
"2023-05-15 00:00",0.087,"Working","OW268"
"2023-05-15 01:00",0.087,"Working","OW268"
"2023-05-15 02:00",0.086,"Working","OW268"
"2023-05-15 03:00",0.085,"Working","OW268"
"2023-05-15 04:00",0.085,"Working","OW268"
"2023-05-15 05:00",0.084,"Working","OW268"
"2023-05-15 06:00",0.083,"Working","OW268"
"2023-05-15 07:00",0.081,"Working","OW268"
"2023-05-15 08:00",0.08,"Working","OW268"
"2023-05-15 09:00",0.078,"Working","OW268"
"2023-05-15 10:00",0.077,"Working","OW268"
"2023-05-15 11:00",0.075,"Working","OW268"
"2023-05-15 12:00",0.074,"Working","OW268"
"2023-05-15 13:00",0.072,"Working","OW268"
"2023-05-15 14:00",0.07,"Working","OW268"
"2023-05-15 15:00",0.07,"Working","OW268"
"2023-05-15 16:00",0.07,"Working","OW268"
"2023-05-15 17:00",0.069,"Working","OW268"
"2023-05-15 18:00",0.069,"Working","OW268"
"2023-05-15 19:00",0.068,"Working","OW268"
"2023-05-15 20:00",0.067,"Working","OW268"
"2023-05-15 21:00",0.066,"Working","OW268"
"2023-05-15 22:00",0.066,"Working","OW268"
"2023-05-15 23:00",0.072,"Working","OW268"
"2023-05-16 00:00",0.073,"Working","OW268"
"2023-05-16 01:00",0.075,"Working","OW268"
"2023-05-16 02:00",0.081,"Working","OW268"
"2023-05-16 03:00",0.135,"Working","OW268"
"2023-05-16 04:00",0.149,"Working","OW268"
"2023-05-16 05:00",0.15,"Working","OW268"
"2023-05-16 06:00",0.15,"Working","OW268"
"2023-05-16 07:00",0.15,"Working","OW268"
"2023-05-16 08:00",0.149,"Working","OW268"
"2023-05-16 09:00",0.147,"Working","OW268"
"2023-05-16 10:00",0.146,"Working","OW268"
"2023-05-16 11:00",0.144,"Working","OW268"
"2023-05-16 12:00",0.142,"Working","OW268"
"2023-05-16 13:00",0.14,"Working","OW268"
"2023-05-16 14:00",0.138,"Working","OW268"
"2023-05-16 15:00",0.137,"Working","OW268"
"2023-05-16 16:00",0.137,"Working","OW268"
"2023-05-16 17:00",0.136,"Working","OW268"
"2023-05-16 18:00",0.135,"Working","OW268"
"2023-05-16 19:00",0.134,"Working","OW268"
"2023-05-16 20:00",0.134,"Working","OW268"
"2023-05-16 21:00",0.133,"Working","OW268"
"2023-05-16 22:00",0.132,"Working","OW268"
"2023-05-16 23:00",0.132,"Working","OW268"
"2023-05-17 00:00",0.131,"Working","OW268"
"2023-05-17 01:00",0.129,"Working","OW268"
"2023-05-17 02:00",0.128,"Working","OW268"
"2023-05-17 03:00",0.138,"Working","OW268"
"2023-05-17 04:00",0.143,"Working","OW268"
"2023-05-17 05:00",0.148,"Working","OW268"
"2023-05-17 06:00",0.148,"Working","OW268"
"2023-05-17 07:00",0.148,"Working","OW268"
"2023-05-17 08:00",0.148,"Working","OW268"
"2023-05-17 09:00",0.147,"Working","OW268"
"2023-05-17 10:00",0.146,"Working","OW268"
"2023-05-17 11:00",0.145,"Working","OW268"
"2023-05-17 12:00",0.144,"Working","OW268"
"2023-05-17 13:00",0.142,"Working","OW268"
"2023-05-17 14:00",0.141,"Working","OW268"
"2023-05-17 15:00",0.141,"Working","OW268"
"2023-05-17 16:00",0.142,"Working","OW268"
"2023-05-17 17:00",0.142,"Working","OW268"
"2023-05-17 18:00",0.142,"Working","OW268"
"2023-05-17 19:00",0.141,"Working","OW268"
"2023-05-17 20:00",0.14,"Working","OW268"
"2023-05-17 21:00",0.139,"Working","OW268"
"2023-05-17 22:00",0.138,"Working","OW268"
"2023-05-17 23:00",0.137,"Working","OW268"
"2023-05-18 00:00",0.136,"Working","OW268"
"2023-05-18 01:00",0.151,"Working","OW268"
"2023-05-18 02:00",0.163,"Working","OW268"
"2023-05-18 03:00",0.163,"Working","OW268"
"2023-05-18 04:00",0.164,"Working","OW268"
"2023-05-18 05:00",0.163,"Working","OW268"
"2023-05-18 06:00",0.163,"Working","OW268"
"2023-05-18 07:00",0.163,"Working","OW268"
"2023-05-18 08:00",0.162,"Working","OW268"
"2023-05-18 09:00",0.161,"Working","OW268"
"2023-05-18 10:00",0.16,"Working","OW268"
"2023-05-18 11:00",0.159,"Working","OW268"
"2023-05-18 12:00",0.158,"Working","OW268"
"2023-05-18 13:00",0.157,"Working","OW268"
"2023-05-18 14:00",0.156,"Working","OW268"
"2023-05-18 15:00",0.155,"Working","OW268"
"2023-05-18 16:00",0.154,"Working","OW268"
"2023-05-18 17:00",0.153,"Working","OW268"
"2023-05-18 18:00",0.151,"Working","OW268"
"2023-05-18 19:00",0.15,"Working","OW268"
"2023-05-18 20:00",0.149,"Working","OW268"
"2023-05-18 21:00",0.15,"Working","OW268"
"2023-05-18 22:00",0.149,"Working","OW268"
"2023-05-18 23:00",0.149,"Working","OW268"
"2023-05-19 00:00",0.152,"Working","OW268"
"2023-05-19 01:00",0.157,"Working","OW268"
"2023-05-19 02:00",0.166,"Working","OW268"
"2023-05-19 03:00",0.167,"Working","OW268"
"2023-05-19 04:00",0.173,"Working","OW268"
"2023-05-19 05:00",0.185,"Working","OW268"
"2023-05-19 06:00",0.187,"Working","OW268"
"2023-05-19 07:00",0.187,"Working","OW268"
"2023-05-19 08:00",0.187,"Working","OW268"
"2023-05-19 09:00",0.187,"Working","OW268"
"2023-05-19 10:00",0.187,"Working","OW268"
"2023-05-19 11:00",0.186,"Working","OW268"
"2023-05-19 12:00",0.186,"Working","OW268"
"2023-05-19 13:00",0.185,"Working","OW268"
"2023-05-19 14:00",0.184,"Working","OW268"
"2023-05-19 15:00",0.183,"Working","OW268"
"2023-05-19 16:00",0.184,"Working","OW268"
"2023-05-19 17:00",0.183,"Working","OW268"
"2023-05-19 18:00",0.182,"Working","OW268"
"2023-05-19 19:00",0.182,"Working","OW268"
"2023-05-19 20:00",0.181,"Working","OW268"
"2023-05-19 21:00",0.181,"Working","OW268"
"2023-05-19 22:00",0.181,"Working","OW268"
"2023-05-19 23:00",0.18,"Working","OW268"
"2023-05-20 00:00",0.18,"Working","OW268"
"2023-05-20 01:00",0.186,"Working","OW268"
"2023-05-20 02:00",0.188,"Working","OW268"
"2023-05-20 03:00",0.188,"Working","OW268"
"2023-05-20 04:00",0.187,"Working","OW268"
"2023-05-20 05:00",0.187,"Working","OW268"
"2023-05-20 06:00",0.187,"Working","OW268"
"2023-05-20 07:00",0.187,"Working","OW268"
"2023-05-20 08:00",0.186,"Working","OW268"
"2023-05-20 09:00",0.186,"Working","OW268"
"2023-05-20 10:00",0.185,"Working","OW268"
"2023-05-20 11:00",0.184,"Working","OW268"
"2023-05-20 12:00",0.184,"Working","OW268"
"2023-05-20 13:00",0.183,"Working","OW268"
"2023-05-20 14:00",0.183,"Working","OW268"
"2023-05-20 15:00",0.183,"Working","OW268"
"2023-05-20 16:00",0.195,"Working","OW268"
"2023-05-20 17:00",0.207,"Working","OW268"
"2023-05-20 18:00",0.212,"Working","OW268"
"2023-05-20 19:00",0.214,"Working","OW268"
"2023-05-20 20:00",0.214,"Working","OW268"
"2023-05-20 21:00",0.214,"Working","OW268"
"2023-05-20 22:00",0.213,"Working","OW268"
"2023-05-20 23:00",0.216,"Working","OW268"
"2023-05-21 00:00",0.216,"Working","OW268"
"2023-05-21 01:00",0.216,"Working","OW268"
"2023-05-21 02:00",0.236,"Working","OW268"
"2023-05-21 03:00",0.256,"Working","OW268"
"2023-05-21 04:00",0.258,"Working","OW268"
"2023-05-21 05:00",0.258,"Working","OW268"
"2023-05-21 06:00",0.258,"Working","OW268"
"2023-05-21 07:00",0.258,"Working","OW268"
"2023-05-21 08:00",0.258,"Working","OW268"
"2023-05-21 09:00",0.257,"Working","OW268"
"2023-05-21 10:00",0.257,"Working","OW268"
"2023-05-21 11:00",0.255,"Working","OW268"
"2023-05-21 12:00",0.254,"Working","OW268"
"2023-05-21 13:00",0.252,"Working","OW268"
"2023-05-21 14:00",0.251,"Working","OW268"
"2023-05-21 15:00",0.249,"Working","OW268"
"2023-05-21 16:00",0.247,"Working","OW268"
"2023-05-21 17:00",0.246,"Working","OW268"
"2023-05-21 18:00",0.245,"Working","OW268"
"2023-05-21 19:00",0.244,"Working","OW268"
"2023-05-21 20:00",0.243,"Working","OW268"
"2023-05-21 21:00",0.242,"Working","OW268"
"2023-05-21 22:00",0.242,"Working","OW268"
"2023-05-21 23:00",0.242,"Working","OW268"
"2023-05-22 00:00",0.241,"Working","OW268"
"2023-05-22 01:00",0.241,"Working","OW268"
"2023-05-22 02:00",0.24,"Working","OW268"
"2023-05-22 03:00",0.24,"Working","OW268"
"2023-05-22 04:00",0.239,"Working","OW268"
"2023-05-22 05:00",0.239,"Working","OW268"
"2023-05-22 06:00",0.238,"Working","OW268"
"2023-05-22 07:00",0.238,"Working","OW268"
"2023-05-22 08:00",0.238,"Working","OW268"
"2023-05-22 09:00",0.238,"Working","OW268"
"2023-05-22 10:00",0.237,"Working","OW268"
"2023-05-22 11:00",0.237,"Working","OW268"
"2023-05-22 12:00",0.236,"Working","OW268"
"2023-05-22 13:00",0.236,"Working","OW268"
"2023-05-22 14:00",0.235,"Working","OW268"
"2023-05-22 15:00",0.235,"Working","OW268"
"2023-05-22 16:00",0.235,"Working","OW268"
"2023-05-22 17:00",0.235,"Working","OW268"
"2023-05-22 18:00",0.235,"Working","OW268"
"2023-05-22 19:00",0.235,"Working","OW268"
"2023-05-22 20:00",0.234,"Working","OW268"
"2023-05-22 21:00",0.234,"Working","OW268"
"2023-05-22 22:00",0.234,"Working","OW268"
"2023-05-22 23:00",0.234,"Working","OW268"
"2023-05-23 00:00",0.238,"Working","OW268"
"2023-05-23 01:00",0.241,"Working","OW268"
"2023-05-23 02:00",0.241,"Working","OW268"
"2023-05-23 03:00",0.244,"Working","OW268"
"2023-05-23 04:00",0.243,"Working","OW268"
"2023-05-23 05:00",0.245,"Working","OW268"
"2023-05-23 06:00",0.245,"Working","OW268"
"2023-05-23 07:00",0.245,"Working","OW268"
"2023-05-23 08:00",0.245,"Working","OW268"
"2023-05-23 09:00",0.245,"Working","OW268"
"2023-05-23 10:00",0.245,"Working","OW268"
"2023-05-23 11:00",0.244,"Working","OW268"
"2023-05-23 12:00",0.244,"Working","OW268"
"2023-05-23 13:00",0.243,"Working","OW268"
"2023-05-23 14:00",0.243,"Working","OW268"
"2023-05-23 15:00",0.242,"Working","OW268"
"2023-05-23 16:00",0.242,"Working","OW268"
"2023-05-23 17:00",0.242,"Working","OW268"
"2023-05-23 18:00",0.248,"Working","OW268"
"2023-05-23 19:00",0.253,"Working","OW268"
"2023-05-23 20:00",0.255,"Working","OW268"
"2023-05-23 21:00",0.256,"Working","OW268"
"2023-05-23 22:00",0.259,"Working","OW268"
"2023-05-23 23:00",0.259,"Working","OW268"
"2023-05-24 00:00",0.28,"Working","OW268"
"2023-05-24 01:00",0.327,"Working","OW268"
"2023-05-24 02:00",0.349,"Working","OW268"
"2023-05-24 03:00",0.356,"Working","OW268"
"2023-05-24 04:00",0.357,"Working","OW268"
"2023-05-24 05:00",0.357,"Working","OW268"
"2023-05-24 06:00",0.356,"Working","OW268"
"2023-05-24 07:00",0.355,"Working","OW268"
"2023-05-24 08:00",0.353,"Working","OW268"
"2023-05-24 09:00",0.351,"Working","OW268"
"2023-05-24 10:00",0.349,"Working","OW268"
"2023-05-24 11:00",0.347,"Working","OW268"
"2023-05-24 12:00",0.344,"Working","OW268"
"2023-05-24 13:00",0.341,"Working","OW268"
"2023-05-24 14:00",0.337,"Working","OW268"
"2023-05-24 15:00",0.335,"Working","OW268"
"2023-05-24 16:00",0.333,"Working","OW268"
"2023-05-24 17:00",0.331,"Working","OW268"
"2023-05-24 18:00",0.329,"Working","OW268"
"2023-05-24 19:00",0.325,"Working","OW268"
"2023-05-24 20:00",0.324,"Working","OW268"
"2023-05-24 21:00",0.321,"Working","OW268"
"2023-05-24 22:00",0.318,"Working","OW268"
"2023-05-24 23:00",0.316,"Working","OW268"
"2023-05-25 00:00",0.314,"Working","OW268"
"2023-05-25 01:00",0.314,"Working","OW268"
"2023-05-25 02:00",0.313,"Working","OW268"
"2023-05-25 03:00",0.313,"Working","OW268"
"2023-05-25 04:00",0.312,"Working","OW268"
"2023-05-25 05:00",0.312,"Working","OW268"
"2023-05-25 06:00",0.31,"Working","OW268"
"2023-05-25 07:00",0.309,"Working","OW268"
"2023-05-25 08:00",0.307,"Working","OW268"
"2023-05-25 09:00",0.305,"Working","OW268"
"2023-05-25 10:00",0.302,"Working","OW268"
"2023-05-25 11:00",0.3,"Working","OW268"
"2023-05-25 12:00",0.297,"Working","OW268"
"2023-05-25 13:00",0.295,"Working","OW268"
"2023-05-25 14:00",0.292,"Working","OW268"
"2023-05-25 15:00",0.292,"Working","OW268"
"2023-05-25 16:00",0.292,"Working","OW268"
"2023-05-25 17:00",0.29,"Working","OW268"
"2023-05-25 18:00",0.289,"Working","OW268"
"2023-05-25 19:00",0.287,"Working","OW268"
"2023-05-25 20:00",0.285,"Working","OW268"
"2023-05-25 21:00",0.285,"Working","OW268"
"2023-05-25 22:00",0.284,"Working","OW268"
"2023-05-25 23:00",0.283,"Working","OW268"
"2023-05-26 00:00",0.282,"Working","OW268"
"2023-05-26 01:00",0.281,"Working","OW268"
"2023-05-26 02:00",0.285,"Working","OW268"
"2023-05-26 03:00",0.429,"Working","OW268"
"2023-05-26 04:00",0.482,"Working","OW268"
"2023-05-26 05:00",0.481,"Working","OW268"
"2023-05-26 06:00",0.476,"Working","OW268"
"2023-05-26 07:00",0.47,"Working","OW268"
"2023-05-26 08:00",0.461,"Working","OW268"
"2023-05-26 09:00",0.451,"Working","OW268"
"2023-05-26 10:00",0.441,"Working","OW268"
"2023-05-26 11:00",0.432,"Working","OW268"
"2023-05-26 12:00",0.422,"Working","OW268"
"2023-05-26 13:00",0.412,"Working","OW268"
"2023-05-26 14:00",0.403,"Working","OW268"
"2023-05-26 15:00",0.395,"Working","OW268"
"2023-05-26 16:00",0.388,"Working","OW268"
"2023-05-26 17:00",0.381,"Working","OW268"
"2023-05-26 18:00",0.374,"Working","OW268"
"2023-05-26 19:00",0.367,"Working","OW268"
"2023-05-26 20:00",0.361,"Working","OW268"
"2023-05-26 21:00",0.356,"Working","OW268"
"2023-05-26 22:00",0.351,"Working","OW268"
"2023-05-26 23:00",0.346,"Working","OW268"
"2023-05-27 00:00",0.342,"Working","OW268"
"2023-05-27 01:00",0.341,"Working","OW268"
"2023-05-27 02:00",0.338,"Working","OW268"
"2023-05-27 03:00",0.334,"Working","OW268"
"2023-05-27 04:00",0.333,"Working","OW268"
"2023-05-27 05:00",0.331,"Working","OW268"
"2023-05-27 06:00",0.329,"Working","OW268"
"2023-05-27 07:00",0.326,"Working","OW268"
"2023-05-27 08:00",0.323,"Working","OW268"
"2023-05-27 09:00",0.319,"Working","OW268"
"2023-05-27 10:00",0.316,"Working","OW268"
"2023-05-27 11:00",0.313,"Working","OW268"
"2023-05-27 12:00",0.309,"Working","OW268"
"2023-05-27 13:00",0.306,"Working","OW268"
"2023-05-27 14:00",0.303,"Working","OW268"
"2023-05-27 15:00",0.301,"Working","OW268"
"2023-05-27 16:00",0.3,"Working","OW268"
"2023-05-27 17:00",0.3,"Working","OW268"
"2023-05-27 18:00",0.299,"Working","OW268"
"2023-05-27 19:00",0.298,"Working","OW268"
"2023-05-27 20:00",0.297,"Working","OW268"
"2023-05-27 21:00",0.296,"Working","OW268"
"2023-05-27 22:00",0.295,"Working","OW268"
"2023-05-27 23:00",0.298,"Working","OW268"
"2023-05-28 00:00",0.324,"Working","OW268"
"2023-05-28 01:00",0.328,"Working","OW268"
"2023-05-28 02:00",0.339,"Working","OW268"
"2023-05-28 03:00",0.367,"Working","OW268"
"2023-05-28 04:00",0.387,"Working","OW268"
"2023-05-28 05:00",0.387,"Working","OW268"
"2023-05-28 06:00",0.387,"Working","OW268"
"2023-05-28 07:00",0.387,"Working","OW268"
"2023-05-28 08:00",0.386,"Working","OW268"
"2023-05-28 09:00",0.384,"Working","OW268"
"2023-05-28 10:00",0.381,"Working","OW268"
"2023-05-28 11:00",0.379,"Working","OW268"
"2023-05-28 12:00",0.375,"Working","OW268"